Theta_e
328 331 330 329 330 331 334 335 337 339 340 339 341 342 341 341 348 349 350 350 348 345 344 345 345 345 346 346 347 348 347 345 343 341 344 343 342 343 344 348 350 347 344 346
326 329 327 327 326 328 330 332 335 337 336 335 339 340 339 339 346 347 350 350 349 348 345 345 345 345 345 347 348 349 344 342 336 341 341 342 343 343 345 349 351 345 346 346
326 326 325 326 328 329 330 332 332 335 336 334 335 337 338 340 343 346 348 349 350 349 346 345 345 346 345 346 348 349 345 346 340 343 345 344 343 345 347 349 351 351 346 347
326 325 325 326 326 327 329 329 330 330 333 337 336 342 341 340 344 346 347 349 349 349 348 345 344 346 345 346 348 349 351 348 349 338 345 343 341 343 345 349 350 350 352 350
326 326 325 326 325 326 327 328 328 329 330 332 335 337 338 340 342 346 347 348 348 349 348 347 344 344 345 347 349 350 352 347 349 342 342 347 342 342 347 350 351 351 351 344
324 323 325 325 325 325 325 326 327 328 329 332 333 336 337 338 342 342 345 346 348 348 348 348 345 344 346 347 349 350 352 341 342 342 338 344 345 344 349 352 352 353 352 352
324 324 325 325 326 326 325 327 327 328 329 332 333 335 336 336 337 340 342 343 347 348 348 348 349 345 345 347 348 350 350 343 342 342 342 341 341 339 345 352 353 351 350 350
327 326 325 326 326 327 326 327 326 330 330 330 331 333 335 335 334 334 338 340 346 348 349 348 349 349 348 347 348 350 350 344 344 344 344 344 344 344 349 350 351 352 351 349
328 328 326 326 326 327 327 329 326 327 328 329 330 331 332 333 334 334 335 336 339 343 348 349 349 350 350 350 349 349 345 339 340 343 344 345 344 345 351 349 348 352 352 351
328 330 327 325 326 326 327 327 326 327 328 329 328 329 331 332 333 334 335 335 337 338 344 347 349 349 350 351 351 352 347 339 335 338 341 342 344 344 345 346 346 347 350 349
327 328 330 326 326 327 326 327 327 326 326 328 329 329 330 331 333 333 334 333 336 338 342 347 348 348 350 350 351 353 354 349 343 341 338 339 341 342 342 344 345 345 346 346
326 328 331 328 327 326 327 327 328 328 329 328 328 329 328 329 330 332 332 332 335 337 339 343 345 347 348 349 350 350 352 354 353 346 341 338 337 338 340 341 343 344 345 346
325 326 331 331 329 327 327 327 327 327 328 331 329 327 330 331 331 331 332 333 334 335 337 339 340 341 344 347 349 349 350 351 353 354 351 342 339 338 339 338 339 341 343 345
318 327 330 332 331 329 328 327 326 327 331 329 330 330 329 328 329 330 331 331 332 334 336 337 339 339 340 343 347 349 349 350 352 353 354 349 342 339 338 338 338 340 341 343
318 326 326 328 325 325 329 328 328 329 329 330 330 331 330 330 330 330 330 330 332 334 335 336 340 341 343 344 346 349 349 348 350 351 351 344 342 342 341 340 340 341 341 342
316 322 322 325 323 323 325 326 327 328 329 329 330 331 331 330 329 330 329 329 329 329 329 332 337 340 344 347 349 350 349 348 348 349 346 341 342 342 342 342 342 342 342 342
314 317 320 325 324 324 326 326 327 327 328 329 330 330 330 330 330 329 329 329 329 329 330 332 336 339 342 346 346 342 345 349 349 346 344 343 344 343 342 342 343 342 342 344
314 316 317 322 324 326 326 327 327 327 327 328 328 328 329 329 328 328 328 328 329 329 330 332 333 334 340 341 342 348 349 348 343 341 342 343 343 343 344 343 342 342 343 343
311 315 317 320 322 324 325 324 325 327 329 328 328 328 328 327 326 327 326 328 329 330 330 331 331 331 332 335 339 345 347 350 350 343 341 341 342 342 342 342 342 343 349 351
311 312 316 317 320 323 323 324 323 326 329 329 332 333 333 330 330 330 327 328 330 329 329 330 330 331 332 333 337 343 347 345 340 342 342 341 341 341 341 342 345 350 350 355
312 313 313 315 317 319 321 324 329 330 338 335 336 338 340 340 337 335 335 336 336 335 334 332 333 333 331 335 339 339 344 337 332 341 344 343 343 342 342 345 349 352 353 355
315 314 313 313 315 316 316 318 327 330 330 332 332 333 335 337 338 340 340 339 338 336 337 333 334 334 335 337 328 328 330 328 334 339 347 343 343 345 350 344 352 355 356 355
313 313 317 314 314 314 315 317 318 319 321 324 328 329 330 332 335 337 342 345 343 342 340 335 338 334 337 333 328 327 327 329 335 341 345 346 345 346 349 354 352 356 357 357
311 311 314 315 315 316 315 315 317 319 320 321 325 328 328 330 332 337 345 347 346 345 340 342 340 336 345 338 329 330 332 334 337 342 343 342 342 349 350 357 358 358 358 358
312 313 313 315 315 314 314 315 315 315 322 323 325 328 330 331 334 339 346 349 347 344 354 350 350 354 354 340 338 338 337 339 338 339 342 349 354 346 357 359 360 360 359 359
310 312 313 314 313 314 314 313 316 317 317 317 319 324 328 333 336 342 349 351 353 353 353 355 356 358 362 357 345 356 343 342 348 351 356 357 358 359 360 356 357 359 360 360
Wind_Speed
29 19 26 27 24 20 13 12 18 15 9 13 16 15 12 16 22 23 26 28 30 31 30 30 30 30 29 28 28 27 28 28 27 26 23 21 20 18 18 17 17 15 15 13
18 28 23 22 22 21 22 17 19 13 7 9 16 15 13 13 22 25 26 29 30 28 29 32 32 32 33 32 31 30 31 31 32 28 26 22 20 19 19 17 16 18 16 14
24 14 24 24 23 23 23 23 18 15 11 14 13 15 15 11 17 23 26 28 27 30 31 33 34 36 34 34 33 31 33 31 32 28 25 24 20 20 20 20 18 18 19 17
24 15 26 22 26 25 25 24 18 16 12 13 15 15 19 20 17 18 25 27 31 33 32 32 34 35 37 36 34 33 33 33 30 32 26 29 27 23 22 19 18 18 19 19
21 25 23 27 25 24 21 17 18 21 18 17 21 10 16 12 18 19 21 29 31 33 36 36 36 38 39 36 35 33 33 36 34 34 32 28 29 24 18 19 19 21 20 23
26 17 23 23 19 23 11 18 15 15 17 19 24 20 17 17 18 18 22 27 31 32 35 36 36 35 36 35 34 32 34 39 38 37 36 36 30 29 22 22 18 17 16 18
24 28 19 18 23 20 23 20 11 14 17 20 19 21 20 9 17 20 19 26 30 33 34 37 37 36 36 37 37 37 39 42 41 40 38 38 38 35 33 25 20 19 17 18
20 21 29 27 25 23 29 25 13 20 15 18 18 17 22 22 24 8 23 23 25 30 33 36 39 40 39 39 42 42 41 45 43 42 41 39 38 36 32 30 25 21 21 19
21 27 26 21 22 24 25 27 25 17 9 10 15 19 16 13 18 25 24 22 27 27 32 35 38 41 40 38 41 47 49 47 46 45 44 43 41 40 33 33 31 28 24 21
17 17 20 26 27 26 19 24 22 17 22 20 13 18 13 18 23 19 22 28 25 27 30 34 35 39 42 41 42 44 47 48 47 49 48 46 45 42 41 40 37 34 30 28
16 14 22 21 26 26 22 18 23 17 17 13 14 13 16 17 17 22 21 27 29 29 28 32 35 35 38 40 38 40 42 47 48 46 47 48 47 45 42 44 43 40 37 35
12 10 13 26 24 25 27 24 27 14 23 20 15 10 8 5 12 18 21 25 27 26 26 26 28 29 30 35 39 41 42 41 43 46 45 45 45 46 44 43 44 42 40 38
1 13 15 14 18 24 26 27 24 25 16 21 18 5 8 7 4 3 9 10 15 20 21 23 23 26 30 33 38 40 40 42 40 41 43 46 46 46 49 46 43 43 42 41
8 11 21 19 16 18 26 27 29 28 20 19 19 15 13 8 4 7 8 9 7 9 13 19 23 26 27 30 35 44 42 37 38 38 39 46 49 49 48 49 46 45 43 43
7 12 7 15 3 5 11 29 30 29 27 26 19 20 19 11 10 8 7 6 4 5 7 12 17 19 20 25 34 41 41 42 38 43 44 45 47 50 51 51 51 48 46 44
5 3 6 15 11 9 11 14 16 21 28 27 26 24 13 12 15 24 21 19 18 18 18 14 16 17 18 21 26 31 36 40 43 44 47 45 45 46 50 52 53 50 49 47
5 5 7 15 12 11 16 22 21 19 20 18 23 17 16 20 16 17 19 16 18 20 17 14 14 17 18 20 20 24 30 32 38 46 47 45 46 45 45 45 47 49 50 48
7 7 8 6 7 17 13 13 19 24 21 20 19 16 15 17 23 24 25 27 30 30 24 18 18 15 17 18 20 20 23 32 37 39 42 45 46 45 42 41 43 44 46 48
13 9 7 11 13 11 7 4 5 10 14 16 19 16 17 25 26 28 27 25 28 30 32 26 24 21 20 20 19 21 23 27 31 38 38 41 42 41 41 41 42 41 38 38
14 12 9 7 16 17 3 11 13 7 9 2 1 6 8 14 14 12 20 21 23 27 27 29 29 28 25 26 20 24 26 29 32 35 36 36 37 39 39 38 37 35 34 32
12 11 14 13 12 8 13 8 2 13 5 6 7 7 8 8 11 20 27 28 22 19 19 20 22 24 27 21 21 27 26 27 28 30 31 33 34 35 34 33 32 30 30 27
9 9 11 14 17 21 10 11 11 10 13 14 14 13 15 18 20 23 26 31 32 32 28 24 23 20 20 21 24 24 25 24 24 27 28 30 32 31 27 32 29 28 28 29
12 11 9 11 10 11 11 15 17 18 21 23 23 22 23 26 27 29 31 29 30 29 28 24 22 18 18 23 25 23 23 23 23 24 28 29 27 25 25 26 24 24 26 26
17 19 14 16 20 22 22 26 22 20 26 27 26 28 27 32 33 35 33 29 26 25 24 22 19 17 15 20 22 22 21 23 24 23 23 22 22 22 21 21 20 22 23 25
13 11 14 19 21 27 30 29 32 24 17 23 26 27 27 29 35 35 36 32 26 20 17 15 14 12 13 16 17 17 18 17 20 20 20 21 20 21 20 21 21 20 20 20
22 24 17 18 24 21 24 27 22 19 23 26 28 30 29 28 36 36 24 19 13 10 10 11 11 10 10 11 16 12 16 18 19 20 19 18 18 19 21 25 25 25 23 24
Wind_Direction
192 199 207 204 214 228 234 216 223 205 169 219 232 237 233 194 205 203 193 198 197 199 198 200 201 202 202 204 205 207 207 210 207 208 208 210 213 215 214 214 221 239 238 246
183 216 211 215 209 222 229 227 227 222 183 240 250 238 235 195 211 211 199 204 205 197 196 199 200 201 203 205 207 208 211 213 213 212 210 210 213 218 218 222 227 234 232 234
199 206 213 205 212 213 224 222 223 231 206 237 255 252 242 216 207 212 212 210 206 204 199 199 200 202 202 205 206 208 211 212 216 209 212 213 213 213 221 221 227 228 228 230
221 199 195 202 215 211 220 222 242 241 230 237 198 252 222 217 203 209 211 208 203 206 203 201 202 204 204 207 208 210 213 215 215 216 212 214 213 216 221 223 228 226 232 234
204 214 196 211 210 207 229 220 221 235 245 255 249 248 253 207 216 210 211 208 209 204 203 202 203 205 206 206 208 210 213 219 216 219 213 219 217 221 221 223 226 234 232 237
222 208 217 219 214 219 213 227 224 232 236 240 238 242 246 239 213 221 212 214 210 207 206 207 207 207 209 208 207 209 213 219 220 220 220 221 220 213 217 223 225 227 233 237
212 225 218 211 214 210 204 199 199 215 223 237 233 233 235 248 235 215 222 210 211 206 205 206 206 206 208 208 209 210 215 218 220 221 222 222 226 228 223 223 228 225 232 235
207 217 204 202 210 200 199 207 209 212 219 228 216 239 237 233 234 258 228 213 208 207 208 206 207 207 207 207 209 211 216 221 220 222 225 227 229 230 233 236 230 233 231 234
199 227 182 200 200 201 197 216 222 250 218 265 230 218 245 249 229 223 217 218 213 207 207 209 209 210 211 210 210 212 217 227 224 224 226 229 231 231 229 231 238 233 230 227
255 221 192 196 198 216 210 203 216 226 240 242 233 238 233 214 219 223 220 217 211 209 208 210 210 211 212 213 213 214 221 226 227 226 227 228 231 233 234 239 238 238 232 231
249 233 189 183 203 198 201 208 217 224 223 227 237 242 226 231 216 219 219 216 216 211 207 210 211 212 213 215 215 215 217 227 232 230 229 228 231 232 233 237 239 238 238 239
220 231 218 206 202 212 204 205 203 213 211 237 266 244 122 238 228 218 222 219 219 215 213 213 215 214 215 216 215 217 217 218 222 229 229 229 230 231 231 233 237 239 238 236
127 222 210 204 206 201 219 200 214 216 232 216 220 224 125 130 117 201 231 225 223 226 226 226 222 217 217 218 216 215 216 217 217 220 223 228 229 230 230 231 232 236 236 234
269 250 226 216 204 205 211 213 214 212 223 230 219 236 196 212 213 172 192 206 201 215 229 227 227 228 229 221 218 215 214 214 213 214 215 223 227 227 228 230 231 234 235 235
325 228 235 255 308 270 258 216 211 221 222 228 233 222 236 241 245 290 307 293 223 213 244 241 227 224 222 220 218 219 216 214 209 215 218 226 227 230 232 234 237 239 239 238
338 218 264 249 232 233 240 231 241 240 233 233 241 248 248 218 249 269 266 280 277 274 274 274 251 234 224 223 219 218 218 216 212 215 222 227 230 230 232 236 239 241 242 242
289 285 246 231 216 250 249 229 225 231 233 238 239 247 258 261 259 260 277 276 279 283 283 268 247 245 247 231 224 230 229 216 216 219 226 229 230 233 234 235 237 239 241 242
266 238 258 256 194 237 249 219 224 227 230 231 245 253 256 255 253 255 257 265 272 274 276 261 254 255 248 248 242 235 219 222 224 229 228 231 233 235 237 238 238 238 238 239
219 254 245 235 228 278 242 170 233 230 239 232 241 246 252 247 252 254 258 257 258 258 259 260 256 262 258 255 254 230 222 217 216 227 233 234 236 239 240 241 242 242 238 239
204 224 248 221 238 234 251 249 213 272 256 233 349 252 270 272 253 256 254 255 265 261 264 266 269 270 266 258 243 225 221 218 231 230 230 233 236 237 241 245 242 237 238 232
188 213 225 228 249 248 264 86 341 204 63 17 7 349 323 284 292 295 289 286 280 280 280 277 276 267 254 245 230 224 220 223 241 233 229 232 235 238 241 243 242 237 234 225
196 203 216 233 242 238 270 309 237 7 325 328 327 328 323 308 304 296 288 285 283 276 277 279 278 265 250 238 237 229 231 245 240 232 224 228 231 229 229 235 233 230 227 227
247 260 233 230 235 259 298 296 303 312 313 314 308 308 309 303 301 303 299 288 280 271 268 270 268 268 239 234 229 229 247 239 232 223 223 224 226 225 215 225 220 216 220 218
265 273 264 271 258 267 273 272 287 304 295 299 300 298 301 302 304 306 303 292 280 271 264 259 253 249 236 231 232 233 228 223 222 217 214 218 219 213 209 207 209 208 214 219
270 282 261 261 255 263 268 271 276 284 291 296 301 299 296 299 299 305 302 295 280 265 248 243 231 222 219 217 215 213 213 204 196 198 200 197 191 196 197 192 201 210 217 223
258 256 251 255 256 258 257 256 270 284 290 292 297 300 296 298 301 304 291 282 255 244 225 202 197 177 157 181 178 174 190 185 185 185 188 187 185 186 190 200 203 205 204 218